Regional Weather Roundup
Issued by NWS Mobile, AL

Home | Current Version | Previous Version | Text Only | Print | Product List | Glossary On
Versions: 1 2 3 4 5 6 7 8 9 10 11 12 13 14 15 16 17 18 19 20 21 22 23 24 25 26 27 28 29 30 31 32 33 34 35 36 37 38 39 40 41 42 43 44 45 46 47 48 49 50
000
ASUS44 KMOB 202110
RWRMOB
REGIONAL WEATHER ROUNDUP
NATIONAL WEATHER SERVICE MOBILE AL
300 PM CST SAT DEC 20 2014

NOTE: "FAIR" INDICATES FEW OR NO CLOUDS BELOW 12,000 FEET WITH NO
      SIGNIFICANT WEATHER AND/OR OBSTRUCTIONS TO VISIBILITY.

  * THESE STATIONS ARE PART OF THE UNIVERSITY OF SOUTH ALABAMA
    MESONET AND ARE NOT UNDER NWS OR FAA QUALITY CONTROL.

ALZ061>064-202200-
COASTAL ALABAMA

CITY           SKY/WX    TMP DP  RH WIND       PRES   REMARKS
MOBILE REG APT CLOUDY    49  47  93 N10       30.11S
BROOKLEY FIELD CLOUDY    52  48  86 N12       30.12S
USA CAMPUS*      N/A     50  48  93 NE2       30.11S
DOG RIVER*     NOT AVBL


CITY           SKY/WX    TMP DP  RH WIND       PRES   REMARKS
MOUNT VERNON*    N/A     50  46  87 CALM      30.13S
SARALAND*      NOT AVBL
BAY MINETTE*   NOT AVBL
LOXLEY*          N/A     52  50  93 N6        30.10S
ROBERTSDALE*     N/A     52  50  93 NE7       30.09F
FAIRHOPE*        N/A     52  50  93 NE9       30.09S
ELBERTA*         N/A     52  50  93 N10       30.08R
FOLEY*           N/A     55  50  82 NW5       30.08R
GRAND BAY*       N/A     50  48  93 N13       30.08F
DAUPHIN ISLND* NOT AVBL
BON SCOUR NWR* NOT AVBL
GULF SHORES    CLOUDY    53  51  93 N7        30.07F

$$

ALZ051>060-202200-
INTERIOR SOUTHWEST AND SOUTH CENTRAL ALABAMA

CITY           SKY/WX    TMP DP  RH WIND       PRES   REMARKS
GREENVILLE     CLOUDY    51  47  86 N7        30.12S
EVERGREEN      CLOUDY    52  48  86 NE5       30.13R
CASTLEBERRY*   NOT AVBL
ATMORE*          N/A     50  50 100 N7        30.12S
DIXIE*           N/A     54  50  87 CALM      30.09R
ANDALUSIA/OPP  CLOUDY    59  48  67 NE6       30.11R
ANDALUSIA*       N/A     54  48  82 NE5       30.11R
FLORALA APT    CLOUDY    57  49  74 CALM      30.12R
FLORALA*         N/A     55  50  82 NW5       30.08R

$$

FLZ001>006-202200-
WESTERN FLORIDA PANHANDLE

CITY           SKY/WX    TMP DP  RH WIND       PRES   REMARKS
PENSACOLA      CLOUDY    51  50  96 MISG      30.07F
NAS PENSACOLA  CLOUDY    54  52  93 N9        30.06F
MILTON         NOT AVBL
WHTNG S FIELD  CLOUDY    56  50  80 NE7       30.09S


CITY           SKY/WX    TMP DP  RH WIND       PRES   REMARKS
WALNUT HILL*   NOT AVBL
JAY*             N/A     52  48  87 N3        30.11S
DUKE FIELD     DRIZZLE   54  52  94 N5        30.09R
CRESTVIEW      LGT RAIN  55  53  93 CALM      30.11R
VALPARAISO     LGT RAIN  53  52  95 N8        30.07F FOG
DESTIN         CLOUDY    54  53  97 N7        30.07F

$$

MSZ076-079-202200-
INTERIOR SOUTHEAST MISSISSIPPI

CITY           SKY/WX    TMP DP  RH WIND       PRES   REMARKS
LEAKESVILLE*   NOT AVBL
AGRICOLA*      NOT AVBL

$$

MARINE OBSERVATIONS

STATION/POSITION TIME  TEMP    WIND        PRES    WAVE
                       AIR SEA DIR/SP/G            HT/PER
                 (UTC) (F)     (DEG/KT/KT) (MB)    (FT/S)
PASCAGOULA       2100   52      10/ 12/ 15 1018.5F
PETIT BOIS ISLND 2100   52      20/ 16/ 19 1018.6F
GRAND BAY        2000   51      20/ 10     1019.0F
KATRINA CUT      2000   52      20/ 19     1019.0F
CEDAR POINT      2000   50      10/ 13     1019.0F
E DAUPHIN ISLAND 2000   53      10/ 14/ 16 1018.3F
MIDDLE BAY LIGHT 2000   52     360/ 17     1018.3F
USCG MOBILE BAY  2100   50 60   10/  7/ 11 1018.4R
STATE DOCKS      2100   51 58              1019.1R
MEAHER PARK      2000   50     360/  8     1019.3F
WEEKS BAY        2000   53                   N/A
FORT MORGAN      2100   53      40/ 16/ 17 1017.9F
12 S ORANGE BCH  2100   57 69   30/ 17/ 19 1017.0S   3/ 6
PENSACOLA BAY    2100   54 60   30/  7/ 10 1018.6R
64 S DAUPHIN ISL 2100   64 74   50/ 21/ 25 1016.1S   8/ 7
67 S FORT MORGAN 2000   65      60/ 19     1015.9

$$

SELECTED LOCATIONS ACROSS THE REGION

CITY           SKY/WX    TMP DP  RH WIND       PRES   REMARKS
NEW ORLEANS    CLOUDY    53  48  83 N13       30.10F
GULFPORT       CLOUDY    52  47  83 N13       30.10R
PASCAGOULA AP  CLOUDY    51  48  89 N14       30.09F
PASCAGOULA*      N/A     52  48  87 NE9       30.09F
HATTIESBURG    CLOUDY    53  46  77 NE8       30.14S
LAUREL         CLOUDY    52  43  71 N9        30.15S
MERIDIAN       SUNNY     54  41  61 NE12      30.16S
JACKSON        MOSUNNY   57  42  57 N9        30.15F
MONTGOMERY     CLOUDY    54  46  74 N7        30.14F
TROY           CLOUDY    52  48  86 N9        30.12F
KINSTON*       NOT AVBL
GENEVA*          N/A     55  50  82 CALM      30.12R
ASHFORD*         N/A     54  48  82 NE5       30.11R
DOTHAN         CLOUDY    57  50  77 NE7       30.12S
PANAMA CITY    LGT RAIN  55  52  89 N8        30.06F FOG

$$



USA.gov is the U.S. government's official web portal to all federal, state and local government web resources and services.